RH
86 85 85 84 84 84 83 84 84 84 85 86 87 87 90 92 87 28 13 29 42 85 70 42 47 45 41 45 42 38 31 36 35 35 38 33 36 35 33 37 35 33 32 32 37
85 86 85 84 84 84 83 83 84 84 86 87 87 88 89 91 19 12 39 70 78 84 40 55 55 49 40 44 39 36 32 31 28 30 33 33 34 35 36 37 38 38 31 34 38
85 85 84 84 84 84 84 83 84 84 84 86 87 88 89 68 15 17 68 80 81 70 37 46 48 43 38 36 36 35 31 33 30 27 29 32 34 32 32 36 35 39 39 38 39
85 86 84 84 84 84 84 83 84 84 85 85 87 88 88 29 27 16 74 84 83 36 37 41 44 39 32 32 32 30 29 29 30 27 29 34 32 31 31 31 31 34 36 37 38
85 86 84 84 84 83 83 85 84 84 84 86 87 88 48 17 18 30 82 74 40 36 37 38 46 33 33 32 34 31 28 27 28 29 29 32 34 34 40 32 30 33 37 36 33
85 86 84 84 84 83 84 85 86 85 86 86 88 90 23 17 22 22 30 37 36 37 34 43 38 32 31 32 34 30 26 30 32 31 31 34 35 35 41 33 35 39 38 34 32
85 84 84 84 84 84 85 86 85 85 85 87 86 48 15 20 25 20 33 35 34 35 37 33 31 32 31 31 32 26 30 31 32 33 34 30 38 37 37 35 39 40 38 36 33
90 87 85 85 84 85 85 87 88 86 86 86 83 30 17 31 23 27 28 32 31 29 30 30 28 29 35 30 29 27 25 30 33 32 33 31 37 38 36 35 39 38 38 39 36
90 89 85 84 86 86 88 88 86 83 82 80 38 21 30 44 29 26 23 31 34 33 28 28 30 28 31 29 31 30 31 33 37 29 33 33 35 34 35 36 37 38 37 38 37
91 90 86 88 86 87 90 88 85 78 53 36 22 21 33 31 26 23 24 28 38 33 34 34 41 37 29 30 42 34 32 30 32 30 31 33 32 31 34 33 36 34 35 36 36
90 90 90 86 86 89 61 28 18 14 12 8 11 19 25 26 25 28 28 30 33 37 33 46 33 34 30 38 26 26 30 34 29 34 31 32 31 28 31 32 33 32 34 34 33
88 90 86 86 87 89 45 11 13 12 8 9 9 14 25 26 33 30 27 36 36 33 39 39 31 24 25 27 26 27 30 31 33 35 34 31 33 27 27 32 29 30 29 31 29
88 88 88 87 90 63 14 12 12 13 8 7 8 12 23 21 29 33 30 32 33 32 30 34 28 26 28 25 28 25 27 33 33 39 41 43 37 31 28 28 29 26 28 26 27
90 91 90 90 58 16 14 16 15 14 7 7 8 9 8 12 18 24 26 28 29 32 30 28 24 26 22 23 21 25 26 28 29 36 35 38 36 44 31 31 30 29 26 26 26
91 92 89 93 23 14 17 14 11 8 8 5 7 6 6 14 12 18 22 25 29 28 29 29 25 24 24 19 20 28 28 30 33 30 32 33 31 29 34 37 31 28 27 25 24
91 91 89 56 31 18 16 10 8 9 13 6 6 7 9 10 11 16 24 22 21 26 25 26 22 24 20 23 22 28 30 31 31 25 28 27 26 20 21 31 29 29 29 28 27
93 93 78 31 12 18 13 8 7 8 8 6 9 8 11 11 9 16 23 29 26 34 32 25 22 18 18 25 27 27 23 28 29 27 24 30 26 22 19 26 38 42 36 31 27
96 92 72 30 22 20 9 8 11 6 8 7 6 8 9 8 9 9 18 26 23 24 21 20 22 18 12 20 23 27 20 27 42 27 20 30 25 19 27 37 41 46 48 37 30
95 29 19 19 20 18 9 8 7 10 9 8 6 9 9 8 9 10 10 13 16 17 25 20 17 11 8 9 12 18 31 17 20 19 20 16 15 15 18 29 39 46 53 52 57
27 14 18 17 16 11 10 18 9 8 8 8 8 8 9 7 8 9 10 8 8 8 9 12 14 8 6 7 13 12 15 20 18 31 32 19 17 16 18 25 41 52 66 72 64
25 13 18 15 12 10 10 9 8 8 10 9 8 8 7 8 7 8 8 8 7 7 7 6 9 8 8 8 8 12 10 10 9 10 17 16 12 20 23 32 39 56 70 76 72
17 13 18 12 11 12 9 13 31 9 9 8 8 8 8 8 8 8 8 8 8 7 9 8 6 9 7 6 6 6 7 7 10 16 11 13 13 34 40 45 51 62 84 93 91
20 16 17 18 14 15 19 16 13 10 10 8 8 9 9 10 12 9 9 8 9 9 10 8 8 10 10 6 7 8 7 7 6 7 13 12 10 38 49 50 59 85 89 92 93
27 18 16 20 26 24 22 21 16 14 12 11 10 10 10 11 12 12 10 10 10 9 52 27 8 11 11 12 12 12 10 11 8 9 9 8 11 41 48 52 72 86 85 82 80
31 31 39 21 22 28 28 26 18 16 14 13 14 11 12 15 14 14 12 11 10 38 16 12 16 13 10 9 10 15 14 12 15 11 12 10 15 29 37 47 73 81 77 63 70
31 37 27 26 38 31 40 26 24 20 20 14 14 12 13 15 16 18 16 16 17 15 15 12 20 18 17 10 15 15 16 23 23 17 22 16 20 39 42 55 71 84 77 69 77
39 39 36 48 29 29 29 33 28 28 18 17 16 15 16 16 17 14 12 13 14 18 18 18 18 22 21 14 20 23 19 23 24 28 26 21 40 44 54 56 62 60 61 55 59
Wind_Speed
15 15 15 14 13 13 13 13 11 11 11 10 11 11 11 11 10 7 8 3 7 14 7 9 6 5 4 1 2 2 3 6 7 4 10 10 9 5 4 12 8 6 7 19 18
15 15 15 14 14 13 13 12 12 11 11 10 11 11 10 10 7 9 7 10 19 13 12 7 6 5 2 1 2 5 5 7 6 5 10 11 5 10 9 11 10 9 15 19 17
15 15 15 14 14 13 13 12 12 11 10 10 10 10 9 10 8 4 13 12 16 12 7 4 5 4 2 4 2 2 8 6 5 6 10 10 7 5 12 9 11 15 20 20 16
15 15 15 14 14 14 14 12 11 11 10 9 9 10 8 6 1 6 14 14 10 10 7 2 1 5 1 2 3 4 5 2 5 8 10 8 9 9 1 6 8 17 21 19 18
15 15 15 15 14 14 14 13 11 10 10 8 9 8 7 7 4 9 14 14 15 8 5 3 3 7 6 2 1 1 7 10 10 7 9 8 8 7 5 8 15 19 18 18 16
16 16 16 15 15 14 14 13 11 10 9 8 8 6 7 5 2 13 16 15 9 7 2 2 5 7 5 3 5 3 12 13 10 10 8 9 9 3 6 11 15 17 16 15 15
15 16 16 16 15 15 14 13 12 10 8 9 6 6 6 7 1 13 15 10 5 8 3 7 5 8 4 6 2 11 14 13 9 8 5 7 9 3 13 14 15 15 14 13 13
16 17 17 16 15 15 15 14 13 10 8 8 6 7 4 3 8 14 12 8 5 5 6 2 4 3 3 4 7 9 10 9 8 9 7 8 10 10 15 15 15 15 14 13 14
17 16 16 15 14 14 14 16 10 5 5 6 7 7 8 4 12 14 9 8 6 2 3 1 5 3 5 9 9 7 5 2 7 8 5 10 3 10 14 14 14 15 14 14 13
17 15 16 14 14 13 14 8 3 7 6 7 5 7 7 9 12 11 10 11 3 4 6 4 1 1 4 8 6 5 5 3 3 7 7 8 10 9 12 14 14 14 15 15 15
18 15 14 15 13 11 11 6 7 7 8 6 7 5 13 13 13 12 11 11 4 6 5 2 7 4 4 8 3 7 4 5 2 2 7 8 8 6 13 15 14 14 16 16 16
19 15 16 14 13 7 7 5 7 7 5 2 1 3 11 17 11 13 12 12 9 8 6 5 5 3 3 3 7 3 6 4 4 3 8 6 10 8 11 16 16 16 16 18 18
18 15 14 13 10 5 4 3 1 5 6 7 3 8 12 10 12 17 15 7 9 8 9 3 3 0 4 5 7 8 7 6 10 4 5 8 14 6 12 14 15 15 15 18 18
16 13 11 12 5 3 3 1 7 5 7 10 10 9 8 7 8 17 17 8 7 8 5 6 3 5 2 3 6 2 4 4 6 7 3 2 3 9 8 14 17 18 17 17 18
16 11 9 6 6 5 6 6 3 5 7 9 10 5 9 14 13 14 17 14 12 6 6 7 7 5 7 7 4 8 3 1 2 5 7 11 7 8 7 8 13 17 19 18 17
15 10 5 5 4 3 6 2 6 8 2 8 8 12 14 13 7 10 13 13 8 11 10 9 1 5 6 4 1 3 5 5 4 6 10 7 6 6 4 5 4 7 13 16 17
16 7 8 2 4 5 4 6 7 7 4 8 12 12 17 11 8 12 16 18 12 11 14 15 12 11 9 6 5 10 10 9 7 9 4 5 6 8 6 3 1 3 7 11 18
14 7 5 3 4 6 6 6 6 3 2 3 5 11 13 10 13 9 12 16 19 12 11 6 11 16 14 16 10 12 13 6 10 13 6 7 5 2 4 4 3 1 4 8 13
11 4 4 4 2 4 7 7 2 1 1 2 8 12 12 7 7 13 12 11 12 14 15 9 11 6 6 3 8 8 9 15 14 18 11 13 8 10 11 7 2 3 6 7 9
3 5 5 4 4 6 7 2 1 3 3 5 8 5 14 12 12 11 13 2 9 7 12 12 14 13 5 4 5 12 9 8 12 15 19 11 11 9 7 8 5 2 5 6 6
5 2 5 6 5 6 6 2 1 1 3 4 2 5 6 5 12 11 6 6 3 5 7 11 11 14 7 11 14 10 13 12 11 11 12 13 8 10 4 3 2 4 5 5 5
4 2 4 4 5 1 3 1 1 2 2 3 2 1 4 4 7 8 8 2 3 2 6 5 9 11 16 6 4 12 19 17 13 11 11 10 11 7 7 8 5 7 10 8 8
2 3 3 5 2 3 4 3 2 4 2 4 4 2 1 4 5 3 3 5 3 3 3 2 7 10 14 11 9 10 12 14 17 16 13 14 10 6 5 7 7 10 7 8 9
3 2 4 2 1 4 2 2 3 2 2 2 2 3 5 4 1 3 6 5 3 4 3 2 12 12 14 18 6 11 9 10 15 13 15 16 11 12 6 7 10 9 9 9 8
4 5 4 2 4 3 3 3 2 3 1 3 5 6 5 5 5 5 4 5 7 7 3 8 14 15 17 18 13 14 14 11 14 16 15 14 9 9 6 7 10 11 7 11 9
4 4 1 2 2 5 3 2 4 1 3 5 7 3 4 6 5 6 5 7 8 5 7 6 12 10 15 17 11 15 10 11 11 11 11 10 4 3 8 13 13 11 10 11 12
3 1 5 3 2 5 3 4 3 5 4 3 6 6 7 4 6 8 8 9 8 9 12 8 10 8 14 6 11 12 15 7 5 5 8 9 10 8 11 10 12 13 13 12 13
Wind_Direction
345 346 348 348 345 339 339 332 345 336 336 338 330 328 326 322 301 211 233 84 143 164 206 148 208 187 223 203 230 248 199 117 127 146 127 146 134 108 99 135 160 140 153 138 143
341 342 344 346 342 338 337 334 333 332 332 332 325 323 319 322 250 235 118 136 139 167 169 165 178 190 214 191 172 275 100 80 75 81 137 157 146 121 145 143 146 148 118 138 154
338 340 342 343 339 336 332 332 327 326 327 323 320 313 312 300 232 153 129 149 153 183 155 128 245 254 249 230 108 60 55 31 70 87 137 134 136 132 146 163 161 161 151 156 163
339 339 340 339 335 334 327 328 323 320 319 316 309 308 307 239 164 75 140 144 151 187 175 192 178 255 284 91 59 217 72 69 97 120 127 138 125 145 204 50 144 155 156 160 171
339 338 337 337 331 329 325 322 319 316 309 307 296 307 268 207 54 120 131 137 167 204 195 202 276 310 28 35 164 350 92 99 101 119 120 125 120 94 78 117 136 147 161 168 174
338 337 334 336 329 326 321 317 314 308 300 289 283 290 244 187 58 144 147 161 172 191 158 42 314 327 310 33 319 109 105 111 117 129 136 142 141 169 119 138 145 158 171 177 179
333 335 335 331 326 324 319 315 307 296 280 266 260 257 247 62 74 153 158 168 176 191 252 240 309 284 319 139 147 134 123 120 133 152 136 157 170 141 150 159 162 174 177 179 182
325 329 331 329 326 322 318 312 304 285 269 254 222 241 66 10 144 154 161 162 196 217 260 267 285 295 321 135 177 177 178 163 148 176 154 234 124 144 165 173 174 180 179 183 189
329 334 335 330 327 322 315 312 294 252 204 185 218 253 102 167 162 154 169 157 138 196 157 167 280 347 183 198 173 210 139 204 163 209 146 232 26 142 174 186 180 182 183 188 186
330 336 334 330 328 320 312 289 81 173 189 215 266 229 166 174 150 162 177 162 158 155 160 204 313 327 228 215 209 175 189 164 171 180 222 226 259 146 189 197 191 188 188 191 195
333 336 331 331 326 316 294 195 196 168 208 344 107 75 133 129 150 178 168 184 216 208 174 238 235 219 255 197 346 276 242 237 185 134 258 255 262 244 191 209 200 196 192 199 201
334 334 331 330 324 308 249 264 36 360 172 161 177 122 139 160 162 170 183 196 203 204 106 194 268 121 147 254 267 263 221 216 103 246 258 266 268 249 213 213 210 205 200 199 201
333 332 328 327 328 241 265 49 9 320 252 141 158 160 166 198 171 173 196 202 228 219 206 249 144 354 271 269 260 234 272 117 272 150 255 282 259 253 204 221 214 211 208 207 205
329 325 326 322 282 136 162 98 287 247 220 143 184 168 171 212 197 172 197 210 210 252 233 293 131 243 328 271 289 303 44 264 240 237 287 278 301 197 224 207 215 216 209 208 210
325 321 316 293 340 214 54 321 173 229 215 136 145 98 158 198 124 187 196 213 252 184 242 108 188 196 305 28 314 34 325 85 188 247 273 176 260 111 174 221 225 220 217 217 208
323 313 281 186 226 8 320 212 237 230 160 154 152 177 177 201 165 137 189 227 273 262 230 268 216 288 18 351 282 129 154 165 191 281 246 83 280 135 80 102 115 201 227 227 224
331 307 208 277 91 337 293 222 221 256 140 156 179 183 197 182 169 182 192 199 222 219 232 224 243 234 229 203 189 225 227 252 225 207 287 98 260 315 342 185 242 283 277 255 225
336 167 184 319 312 302 222 226 244 49 168 117 210 198 205 185 214 190 203 213 217 266 280 251 223 207 195 227 251 222 283 287 299 295 316 154 261 101 50 107 117 89 347 315 236
318 174 153 54 42 261 234 220 17 100 23 211 177 201 193 201 253 214 226 235 238 208 253 266 254 255 225 221 254 216 237 267 272 248 264 281 249 240 209 214 166 31 39 39 25
258 138 78 346 308 238 235 318 142 353 316 221 232 240 214 204 206 209 201 204 233 244 251 264 265 247 195 224 202 268 337 234 220 259 273 264 262 261 248 184 139 91 63 57 57
238 165 63 330 261 224 237 82 226 97 292 288 211 199 250 193 226 209 214 116 225 167 241 254 247 267 176 216 248 187 226 234 284 294 297 289 284 27 26 49 131 94 89 85 78
289 147 50 293 208 285 220 353 9 230 167 236 274 330 227 208 206 218 218 265 133 209 216 200 278 262 266 305 298 274 284 272 259 251 237 274 278 54 74 80 76 88 76 62 59
11 66 115 265 251 162 125 185 269 244 198 198 172 296 218 161 202 240 197 111 161 254 333 131 252 278 255 208 211 241 243 253 262 265 265 283 288 101 95 109 93 99 87 87 79
279 189 129 81 15 317 345 69 170 141 199 248 131 209 188 188 202 184 208 163 191 271 10 269 270 274 281 301 337 291 268 253 269 263 262 258 255 156 147 148 119 110 120 117 115
348 62 14 46 95 3 317 317 251 162 186 227 183 249 223 225 224 231 235 244 218 138 231 274 271 275 275 274 282 272 281 270 254 265 284 302 319 62 153 175 144 137 163 130 129
0 331 182 52 293 281 161 82 314 47 281 177 259 191 213 261 292 321 299 276 284 174 261 231 269 279 273 271 262 265 239 243 244 260 263 270 248 100 109 116 144 152 166 145 147
49 136 286 118 263 261 51 352 336 323 180 315 320 253 228 22 344 331 303 296 285 285 285 274 278 254 271 257 237 234 231 229 281 263 311 294 48 127 139 156 165 167 180 168 164